Regional Weather Roundup
Issued by NWS

Home | Current Version | Previous Version | Text Only | Print | Product List | Glossary Off
Versions: 1 2 3 4 5 6 7 8 9 10 11 12 13 14 15 16 17 18 19 20 21 22 23 24 25 26 27 28 29 30 31 32 33 34 35 36 37 38 39 40 41 42 43 44 45 46 47 48 49 50

000
ASUS43 KMPX 071101
RWRMN
WEATHER ROUNDUP FOR MINNESOTA
NATIONAL WEATHER SERVICE TWIN CITIES/CHANHASSEN MN
500 AM CST WED DEC 07 2016


NOTE: "FAIR" INDICATES FEW OR NO CLOUDS BELOW 12,000 FEET WITH NO
SIGNIFICANT WEATHER AND/OR OBSTRUCTIONS TO VISIBILITY. N/A MEANS
CURRENT SKY AND/OR WEATHER CONDITIONS ARE NOT AVAILABLE.

MNZ060>063-068>070-071200-
   Twin Cities Metro

CITY           SKY/WX    TMP DP  RH WIND       PRES   REMARKS
TWIN CITIES    FLURRIES  17   8  67 W18G28    29.95R WCI   1
ST PAUL        FLURRIES  17  32 100 W15G24    29.96R WCI   2
CRYSTAL        FLURRIES  17   7  64 W18G29    29.93R WCI   1
BLAINE         CLOUDY    19  10  68 W18G26    29.91R WCI   4
LAKEVILLE      FLURRIES  14   9  79 W15G29    29.95S WCI  -1
EDEN PRAIRIE   CLOUDY    17   8  67 W21G31    29.95R WCI   0
SOUTH ST PAUL  FLURRIES  18  10  71 SW14G25   29.95R WCI   4
LAKE ELMO      FLURRIES  19  14  79 W18G26    29.93R WCI   4
$$
MNZ001>005-007-008-013>017-022>024-027-028-071200-
   Northwest Minnesota

CITY           SKY/WX    TMP DP  RH WIND       PRES   REMARKS
BEMIDJI        LGT SNOW  15  11  85 W20G28    29.70R WCI  -3
HALLOCK        LGT SNOW  18  16  93 NW28G35   29.75R WCI  -1
ROSEAU         LGT SNOW  21  18  86 W18G30    29.63R WCI   6
WARROAD        CLOUDY    21  18  86 W12G20    29.60R WCI   9
THIEF RVR FALL LGT SNOW  15  12  88 W23G33    29.76R FOG     WCI  -3
CROOKSTON      LGT SNOW  16  12  86 NW29G36   29.82R VSB 3/4 WCI  -4
FOSSTON        LGT SNOW  12  10  92 W23G32    29.77R WCI  -7
DETROIT LAKES  LGT SNOW  12  10  92 W22G28    29.83R WCI  -7
MOORHEAD       MIX PCPN  10   7  85 W24G30    29.92R WCI -10
PARK RAPIDS    LGT SNOW  14   7  73 W18       29.76R WCI  -3
$$
MNZ006-009>011-018-025>026-071200-
   North Central Minnesota

CITY           SKY/WX    TMP DP  RH WIND       PRES   REMARKS
BAUDETTE       LGT SNOW  22  18  85 W15G25    29.56R FOG     WCI   9
FLAG ISLAND    CLOUDY    25  21  86 NW21      29.56R WCI  10
INTL FALLS     HVY SNOW  23  20  88 W10       29.53R VSB 1/4 WCI  12
WASKISH        LGT SNOW  21  18  86 W24G32    29.62R WCI   4
BIG FORK       LGT SNOW  19  14  79 W13G18    29.60R WCI   7
LONGVILLE      FLURRIES  16  10  79 W14G20    29.72R WCI   1
GRAND RAPIDS   LGT SNOW  17  13  84 W13G22    29.67R FOG     WCI   4
CRANE LAKE     LGT SNOW  19  19 100 CALM      29.55R VSB 3/4
ORR            LGT SNOW  21  16  79 W12G17    29.52R WCI   9
COOK           FLURRIES  19  16  86 W13G18    29.56R WCI   7
$$
MNZ012-019>021-037-071200-
   Northeast Minnesota

CITY           SKY/WX    TMP DP  RH WIND       PRES   REMARKS
DULUTH         FLURRIES  16  11  80 W24G31    29.63R WCI  -2
ELY            LGT SNOW  19  18  93 W12       29.53R WCI   7
HIBBING        LGT SNOW  17  13  84 W10G20    29.61R FOG     WCI   5
EVELETH        LGT SNOW  19  15  85 W14       29.60R WCI   5
DULUTH HARBOR  FLURRIES  21  14  73 W23G33    29.70R WCI   5
TWO HARBORS    FLURRIES  19  12  73 SW14G21   29.60S WCI   6
SILVER BAY     LGT SNOW  19  16  86 SW8       29.58R WCI   9
GRAND MARAIS     N/A     27  21  78 W12G18    29.56R WCI  17
G MARAIS ARPRT LGT SNOW  18  14  86 W6        29.48R WCI   9
$$
MNZ029>031-032-039>041-046>048-054>057-064-071200-
   West Central Minnesota

CITY           SKY/WX    TMP DP  RH WIND       PRES   REMARKS
FERGUS FALLS   CLOUDY    10   7  85 W23       29.98R WCI -10
WHEATON        FLURRIES  14  10  85 W16G26    30.02R WCI  -2
MORRIS         FLURRIES  12   9  85 W26G35    29.96R WCI  -8
ALEXANDRIA     LGT SNOW  11   7  84 W22G35    29.90R FOG     WCI  -8
ELBOW LAKE     FLURRIES  10   7  85 NW22G30   29.95R WCI  -9
WADENA         LGT SNOW  10   7  85 W15G21    29.82R WCI  -6
GLENWOOD       LGT SNOW  10   9  92 W21G35    29.92R WCI  -9
APPLETON       CLOUDY    16   9  73 W26G32    30.00R WCI  -3
BENSON         FLURRIES  16   7  67 NW20G25   29.98R WCI  -1
ORTONVILLE     CLOUDY    12   7  79 W21G30    30.01R WCI  -6
MADISON        CLOUDY    16   7  67 W26       30.04R WCI  -3
WILLMAR        FLURRIES  16  10  79 W20G31    29.98R WCI  -1
$$
MNZ033>034-036-042>043-049>051-058-059-071200-
   Central Minnesota

CITY           SKY/WX    TMP DP  RH WIND       PRES   REMARKS
ST CLOUD       FLURRIES  14   8  77 W22G28    29.90R WCI  -4
PAYNESVILLE    FLURRIES  14   9  82 W21G30    29.94R WCI  -4
AITKIN         FLURRIES  18   9  68 W10G20    29.73R WCI   6
PINE RIVER     FLURRIES  14   9  79 W9G17     29.79R WCI   2
BRAINERD       FLURRIES  13   8  81 W14       29.79R WCI  -2
STAPLES        FLURRIES  10   9  92 W17G23    29.82R WCI  -7
LONG PRAIRIE   LGT SNOW  12   7  79 SW18G28   29.87R WCI  -5
LITTLE FALLS   CLOUDY    14   9  79 W12G18    29.86R WCI   0
LITCHFIELD     CLOUDY    16  10  79 W21       29.95R WCI  -2
BUFFALO        FLURRIES  16   9  74 SW13G25   29.95R WCI   3
MAPLE LAKE     FLURRIES  17  11  77 W16G25    29.94R WCI   2
HUTCHINSON     CLOUDY    16  10  79 W22G28    29.98R WCI  -2
$$
MNZ037-044-045-052-053-071200-
   East Central Minnesota

CITY           SKY/WX    TMP DP  RH WIND       PRES   REMARKS
PRINCETON      CLOUDY    16  10  79 SW15G22   29.88R WCI   1
MORA           CLEAR     14   9  79 W16       29.83R WCI  -2
CAMBRIDGE      FLURRIES  18   9  68 SW15G21   29.86R WCI   3
RUSH CITY      CLOUDY    16   9  73 W18G24    29.85R WCI  -1
MOOSE LAKE     MOCLDY    18  10  73 W16G24    29.73R WCI   3
HINCKLEY       CLOUDY    18  12  79 W18G24    29.80R WCI   2
CLOQUET        FLURRIES  16  10  79 SW13G22   29.68R WCI   2
MCGREGOR       MOCLDY    18  10  73 W16G22    29.73R WCI   3
$$
MNZ071>073-080-081-089-090-097-098-071200-
   Southwest Minnesota

CITY           SKY/WX    TMP DP  RH WIND       PRES   REMARKS
MONTEVIDEO     CLOUDY    12   7  79 NW16G24   30.03R WCI  -4
GRANITE FALLS  PTCLDY    14   8  77 W18G25    30.05R WCI  -3
CANBY          CLEAR     12   5  74 NW25G32   30.05R WCI  -9
MARSHALL       CLEAR     10   4  76 W22G29    30.05R WCI -10
REDWOOD FALLS  CLEAR     13   4  67 W20       30.03R WCI  -5
OLIVIA         MOCLDY    16   9  73 W23G29    29.99S WCI  -2
PIPESTONE      CLEAR      9   3  78 NW22G28   30.05R WCI -11
WINDOM         CLEAR     10   5  79 W17G26    30.03R WCI  -7
WORTHINGTON    CLEAR      8   3  80 W18       30.07R WCI -11
JACKSON        CLEAR     10   5  79 W24G31    30.04R WCI -10
TRACY          CLEAR     11   5  77 W14G22    30.04R WCI  -5
SLAYTON        CLEAR      8   3  82 W23G30    30.04R WCI -13
$$
MNZ065>067-074>077-082>085-091>093-071200-
   South Central Minnesota

CITY           SKY/WX    TMP DP  RH WIND       PRES   REMARKS
MANKATO        FLURRIES  13   7  77 W20G29    30.02R WCI  -5
NEW ULM        PTCLDY    12   7  79 W20       30.03R WCI  -6
ST JAMES       CLEAR     12   7  79 W20G28    30.05R WCI  -6
FAIRMONT       CLEAR     12   6  77 W21G26    30.06R WCI  -7
GLENCOE        FLURRIES  16  12  84 W12G21    29.97S WCI   3
FARIBAULT      FLURRIES  16  10  79 W17G26    29.99S WCI   0
OWATONNA       FLURRIES  16   9  73 W20G28    30.00R WCI  -1
WASECA         MOCLDY    14  10  85 W17       30.02R WCI  -3
ALBERT LEA     PTCLDY    18  10  73 W14G22    30.01R WCI   4
$$
MNZ078>079-086>088-094>096-071200-
   Southeast Minnesota

CITY           SKY/WX    TMP DP  RH WIND       PRES   REMARKS
ROCHESTER      FLURRIES  14   9  80 W21       29.96R WCI  -4
RED WING       CLOUDY    18   9  68 W20G25    29.96R WCI   1
STANTON        CLOUDY    17  10  72 W20G26    29.97R WCI   0
DODGE CENTER   FLURRIES  14   9  79 W22G31    29.96R WCI  -4
WINONA         CLOUDY    19  12  73 W9        30.01R WCI   9
AUSTIN         MOCLDY    14   9  79 W14       30.00R WCI  -1
PRESTON        LGT SNOW  13   8  81 W14       29.99R WCI  -2
$$
ABBREVIATIONS USED IN REMARKS
   TC - TEMPERATURES IN CELSIUS
  WCI - WIND CHILL INDEX
   HX - HEAT INDEX
  VSB - VISIBILITY
$$



USA.gov is the U.S. government's official web portal to all federal, state and local government web resources and services.